Tracking 18951 objects as of 21-Jan-2018
HD Live streaming from Space Station
objects crossing your sky now

NIMBUS 2 DEB

Track NIMBUS 2 DEB now!
10-day predictions


NORAD ID: 37888
Int'l Code: 1966-040AT
Perigee: 1,075.5 km
Apogee: 1,156.1 km
Inclination: 100.6 °
Period: 107.4 minutes
Semi major axis: 7486 km
RCS: 0.036 m2 (small)
Launch date: May 15, 1966
Source: United States (US)
Launch site: AIR FORCE WESTERN TEST RANGE (AFWTR)

Note: This is SATELLITE DEBRIS
aabbcc
Your satellite tracking list
Your tracking list is empty




NASA's NSSDC Master Catalog

Two Line Element Set (TLE):
1 37888U 66040AT  18021.01495340  .00000543  00000-0  10768-2 0  9994
2 37888 100.6411 209.6633 0053884 309.3936 205.0124 13.40167676424509
Source of the keplerian elements: AFSPC